Wind_Speed
14 13 13 14 14 14 13 13 12 12 11 11 11 11 10 10 11 10 10 10 10 11 11 10 10 10 10 10 10 9 9 9 8 7 7 7 7 6 6 6 6 6 6 6
14 14 13 14 14 15 15 14 13 13 12 12 12 11 11 10 10 10 10 10 10 10 11 11 11 10 10 10 9 9 9 9 8 7 7 7 6 6 6 6 6 6 6 6
15 14 14 14 15 15 15 15 15 15 14 14 14 12 11 11 10 10 11 10 10 10 10 11 11 10 10 10 9 10 9 9 9 8 7 7 6 6 6 6 6 6 6 6
14 15 15 15 15 15 15 15 15 16 15 15 15 14 12 12 11 11 11 11 11 10 11 11 11 10 10 10 10 10 10 9 8 8 7 7 7 7 6 6 5 5 6 6
14 15 16 16 16 16 16 16 16 17 17 17 16 16 13 12 12 11 12 12 11 11 11 12 11 11 10 10 10 10 10 9 8 7 7 7 7 7 7 6 6 6 6 6
15 16 16 16 17 17 18 18 18 18 18 18 17 17 14 13 12 12 12 12 12 12 11 11 11 10 10 10 10 10 9 8 8 7 7 7 7 7 6 7 7 7 7 7
16 17 17 17 18 18 19 19 19 20 19 19 18 17 15 14 13 13 12 12 11 11 11 11 10 10 11 10 9 9 9 8 8 8 7 7 6 6 6 6 7 7 7 7
18 17 18 18 18 19 18 19 19 20 20 19 18 18 15 15 14 13 12 12 12 11 11 11 11 11 11 10 10 9 9 8 7 7 8 8 7 6 6 6 6 7 7 8
19 18 18 19 18 19 19 19 19 20 20 20 19 17 16 16 15 13 13 12 12 11 11 11 10 11 11 10 10 10 9 9 8 8 7 8 8 7 7 7 6 6 7 7
19 19 18 19 19 19 19 19 19 20 21 21 20 18 16 16 16 14 14 14 13 12 11 11 11 11 11 10 10 9 9 9 8 8 8 8 7 7 7 7 8 8 7 7
19 19 18 19 19 19 19 20 20 21 21 21 21 19 17 17 16 15 14 14 14 13 12 12 11 11 11 10 10 10 9 9 9 10 10 9 8 7 7 8 8 8 7 7
20 20 19 20 20 20 20 20 21 22 21 22 23 21 18 18 17 16 15 15 15 15 13 13 12 12 11 10 10 10 10 10 10 9 10 9 9 8 8 8 8 8 8 8
21 21 21 21 21 21 21 20 21 22 23 23 23 21 19 19 17 16 16 15 14 15 14 14 13 13 12 11 11 10 10 10 10 9 9 9 9 8 8 8 8 8 9 9
23 22 22 22 21 22 22 22 22 23 24 24 23 22 20 20 18 17 17 17 16 16 16 15 14 13 12 12 11 11 11 10 10 10 9 9 8 8 8 8 8 9 9 9
23 23 23 23 22 23 23 23 22 23 23 24 23 23 22 20 19 18 18 18 18 17 17 16 15 14 13 12 12 11 12 11 11 11 10 9 8 8 8 8 8 8 9 10
24 24 24 24 23 24 24 24 23 22 22 23 24 24 23 21 20 19 19 19 20 19 18 18 16 14 14 13 12 12 12 12 11 11 11 10 9 9 9 9 9 9 9 10
23 23 23 23 23 25 25 23 23 23 22 22 24 24 24 22 21 20 20 20 20 20 20 19 17 15 15 14 14 13 13 13 12 12 12 12 11 11 10 10 10 10 10 10
22 22 22 22 22 25 23 22 22 23 22 21 23 23 23 23 23 22 21 21 20 20 21 21 20 18 16 16 15 14 14 14 13 13 13 13 12 12 12 11 11 10 11 11
22 23 24 23 23 24 22 21 22 22 22 22 23 23 23 23 24 23 21 21 21 19 19 20 21 19 18 18 16 16 15 15 14 14 14 14 13 13 13 12 12 11 11 12
23 24 24 25 25 23 22 22 22 22 23 22 22 22 22 23 24 22 22 21 21 21 20 20 20 20 20 19 18 17 17 16 15 15 15 15 15 15 14 13 13 12 12 12
24 24 25 25 25 24 22 23 23 24 22 21 22 21 21 22 23 23 23 23 22 22 21 21 21 21 21 20 19 19 18 18 17 16 15 15 16 15 15 14 14 14 13 13
24 25 26 26 26 24 23 24 24 24 23 22 22 22 22 21 21 22 23 24 23 23 22 22 22 22 22 22 21 20 19 19 19 17 16 16 16 16 16 15 15 15 15 15
26 26 27 27 26 24 24 25 25 25 25 25 24 22 22 22 22 22 23 23 24 23 23 23 23 23 23 22 22 21 21 21 20 19 18 18 17 17 17 17 17 16 16 16
27 27 27 27 26 26 25 25 25 26 25 25 25 25 23 23 23 23 22 23 23 23 23 23 23 24 24 24 23 22 22 23 22 21 20 19 19 19 19 18 18 18 18 17
26 26 26 27 26 26 26 26 25 25 25 25 25 25 24 24 23 23 23 23 23 23 24 24 23 24 25 25 25 24 23 24 23 22 21 20 20 20 20 20 20 19 19 18
26 26 26 26 26 27 27 27 27 26 25 26 26 25 24 23 23 23 24 24 24 23 23 24 24 24 25 25 25 26 25 25 24 23 23 22 21 21 21 21 21 20 20 19
Wind_Direction
254 256 258 261 263 264 268 272 278 280 275 276 280 285 286 288 292 297 299 303 311 316 316 317 317 317 317 316 313 306 306 307 304 304 300 296 292 289 286 283 277 271 259 249
254 257 258 261 264 264 268 272 276 278 277 279 281 283 284 288 290 294 298 299 305 308 309 311 312 311 311 310 309 302 300 300 299 298 297 295 294 292 288 287 278 268 260 250
255 256 258 261 263 266 270 271 271 273 275 278 280 281 282 285 286 290 293 297 298 300 303 308 308 307 304 303 304 301 297 292 292 293 292 288 289 296 293 283 276 267 258 250
254 257 260 261 262 267 268 269 268 269 272 274 276 276 278 280 282 285 289 292 296 296 297 302 304 303 300 300 299 298 297 294 288 284 285 286 285 288 287 280 271 265 254 245
254 258 261 261 262 264 266 268 269 270 271 270 270 273 276 279 281 282 283 286 290 295 297 299 301 300 298 295 294 294 293 292 286 280 282 284 280 279 279 274 266 260 254 250
255 259 262 263 263 263 266 267 267 267 268 268 269 273 275 279 281 282 283 285 288 291 296 296 297 296 295 290 288 287 288 284 279 276 281 284 281 278 278 273 261 254 251 247
256 260 263 264 266 266 266 266 267 266 266 268 270 271 273 277 277 281 282 285 286 287 291 293 293 293 293 290 284 284 285 281 273 270 277 280 278 277 274 275 267 255 246 242
260 260 263 264 266 268 268 266 267 268 267 267 269 272 274 274 275 278 280 283 285 287 287 290 291 290 289 286 281 282 283 278 272 270 273 278 276 276 274 274 268 255 245 239
265 264 264 264 265 267 267 266 266 266 267 268 270 271 270 271 271 272 274 277 278 281 282 286 288 286 285 284 281 278 280 276 272 270 270 272 274 272 273 269 260 254 245 240
266 266 264 264 264 266 266 265 265 264 267 269 271 271 270 266 266 266 267 270 269 271 276 279 282 283 284 284 282 278 278 277 271 265 267 267 267 269 269 261 257 253 250 243
266 267 265 264 264 265 264 263 262 262 264 266 268 269 270 267 269 270 268 266 267 270 273 275 276 278 279 280 280 278 275 271 268 262 261 262 263 263 263 259 253 247 240 234
263 265 264 265 264 262 261 262 262 261 262 264 268 269 268 265 267 268 269 267 266 267 271 272 271 271 274 275 277 275 272 268 267 260 256 256 259 258 257 254 250 241 235 233
261 263 265 264 264 261 259 259 260 259 260 264 267 269 266 264 266 265 265 267 264 264 267 269 268 267 269 271 273 272 267 264 262 255 252 254 255 254 252 248 245 243 238 235
260 262 264 266 268 265 260 259 261 261 261 263 264 263 263 265 265 262 260 259 260 261 263 265 267 268 267 264 267 268 265 261 258 254 252 249 248 249 249 248 246 243 236 234
261 262 263 264 264 264 262 261 261 262 262 263 262 262 261 262 261 259 259 257 257 259 258 261 265 263 262 259 260 263 262 257 254 252 251 243 240 244 247 247 246 239 234 233
261 263 264 263 263 263 263 262 261 261 262 262 260 259 260 259 256 256 256 255 256 255 256 259 259 257 256 257 259 261 260 256 253 252 248 241 240 243 246 246 247 243 238 234
261 263 265 265 263 261 262 263 262 261 262 263 261 260 257 257 253 252 253 252 255 254 253 254 250 252 251 252 255 256 255 254 254 253 248 242 240 244 246 247 246 245 242 237
260 263 265 266 264 261 264 263 263 262 261 262 262 259 257 257 253 251 251 252 256 255 251 251 250 250 247 248 250 250 251 250 251 250 247 243 242 245 246 247 244 246 244 238
258 261 265 267 266 263 262 262 262 263 261 262 262 258 258 257 254 251 252 252 252 254 252 249 247 244 244 246 247 247 247 249 249 246 244 244 243 244 245 245 244 245 245 242
255 258 262 267 268 265 264 264 263 263 261 260 260 260 258 256 255 253 251 251 251 251 252 250 244 241 241 243 245 244 244 246 247 247 245 243 242 243 244 243 242 243 244 243
257 258 262 266 268 266 265 264 264 263 263 260 259 258 258 258 258 254 251 251 252 251 251 249 245 242 241 241 244 243 242 244 246 246 245 243 242 242 243 243 243 243 244 244
262 263 264 266 266 265 265 264 262 263 263 260 259 260 260 259 257 255 253 252 252 251 250 247 246 244 242 241 242 243 242 242 243 243 243 242 241 242 242 243 244 245 246 246
261 263 266 266 265 266 265 263 263 261 262 259 257 258 260 258 256 257 255 253 252 252 251 250 248 246 245 243 242 242 241 243 242 242 242 243 243 243 243 244 246 247 247 249
261 263 264 263 262 263 262 262 262 262 262 259 257 259 257 257 257 257 256 254 253 252 252 249 248 246 244 245 243 241 240 241 242 242 242 243 244 245 245 244 246 246 247 250
262 264 263 263 261 260 259 259 260 261 260 258 257 257 256 258 257 257 256 255 255 253 251 250 249 246 246 245 243 241 240 240 241 242 241 242 243 244 244 244 245 246 246 248
262 263 264 264 263 262 260 258 259 258 257 257 257 257 257 255 256 257 255 254 252 251 252 250 248 248 246 245 244 242 241 239 240 241 241 241 242 243 244 244 243 244 245 247
Height
5868 5869 5869 5869 5870 5870 5869 5869 5869 5869 5868 5867 5867 5867 5867 5866 5865 5864 5864 5863 5862 5861 5859 5858 5857 5855 5854 5853 5852 5851 5850 5849 5848 5847 5847 5846 5846 5845 5845 5844 5844 5844 5844 5844
5865 5866 5866 5866 5866 5866 5866 5866 5866 5865 5864 5864 5864 5864 5864 5863 5862 5862 5861 5860 5860 5858 5857 5856 5854 5853 5852 5851 5850 5849 5848 5847 5846 5846 5845 5844 5844 5843 5843 5843 5842 5842 5842 5842
5861 5863 5862 5862 5862 5862 5862 5862 5862 5862 5861 5860 5861 5861 5861 5860 5859 5858 5858 5857 5857 5856 5855 5853 5852 5851 5850 5849 5848 5847 5846 5845 5845 5844 5843 5843 5842 5842 5841 5841 5841 5840 5840 5841
5857 5858 5858 5858 5858 5858 5858 5858 5858 5857 5857 5857 5857 5857 5858 5857 5856 5855 5855 5854 5853 5853 5852 5851 5850 5849 5848 5847 5846 5845 5844 5843 5843 5842 5841 5841 5841 5840 5840 5839 5839 5839 5839 5839
5853 5853 5854 5854 5854 5854 5854 5854 5854 5853 5853 5853 5853 5852 5854 5853 5852 5852 5852 5851 5850 5849 5849 5848 5847 5847 5846 5844 5843 5842 5842 5841 5840 5840 5840 5839 5839 5838 5838 5837 5838 5838 5838 5838
5849 5849 5849 5849 5849 5849 5849 5849 5849 5848 5848 5849 5849 5848 5849 5849 5849 5848 5848 5847 5847 5846 5846 5845 5844 5844 5843 5842 5841 5840 5839 5838 5838 5838 5838 5837 5837 5836 5836 5836 5836 5836 5836 5836
5844 5844 5844 5844 5844 5844 5844 5845 5844 5843 5843 5844 5844 5843 5845 5845 5845 5844 5844 5844 5843 5843 5843 5842 5841 5841 5840 5839 5838 5837 5837 5836 5836 5836 5836 5835 5835 5834 5834 5834 5834 5834 5834 5834
5839 5840 5839 5839 5839 5839 5839 5839 5840 5839 5838 5839 5838 5838 5841 5840 5840 5840 5840 5840 5840 5839 5839 5839 5838 5837 5837 5836 5835 5835 5834 5834 5834 5833 5833 5833 5833 5832 5832 5832 5832 5832 5832 5832
5833 5834 5834 5834 5833 5834 5833 5833 5834 5834 5833 5833 5833 5834 5835 5835 5835 5835 5835 5836 5836 5836 5836 5836 5835 5834 5834 5833 5833 5832 5832 5831 5831 5831 5831 5831 5831 5830 5830 5830 5830 5830 5830 5831
5827 5828 5828 5828 5828 5828 5828 5828 5828 5828 5827 5827 5828 5829 5830 5830 5830 5831 5832 5832 5832 5832 5832 5832 5832 5831 5830 5830 5830 5829 5829 5828 5828 5828 5828 5829 5829 5828 5828 5828 5828 5828 5828 5829
5821 5822 5823 5823 5822 5823 5823 5823 5822 5822 5822 5822 5822 5825 5825 5825 5825 5826 5827 5827 5828 5828 5828 5828 5828 5828 5827 5827 5826 5826 5826 5826 5826 5826 5826 5826 5826 5826 5826 5826 5826 5826 5827 5827
5815 5816 5816 5817 5817 5817 5817 5817 5817 5817 5817 5817 5816 5821 5820 5820 5820 5821 5821 5822 5822 5823 5823 5824 5824 5824 5823 5823 5823 5823 5823 5823 5823 5823 5823 5823 5823 5823 5823 5823 5824 5824 5825 5825
5809 5810 5810 5811 5812 5811 5810 5810 5810 5811 5811 5811 5811 5815 5813 5814 5814 5815 5816 5816 5817 5818 5818 5819 5819 5820 5820 5820 5820 5820 5820 5820 5820 5820 5820 5820 5820 5821 5821 5821 5821 5822 5822 5823
5802 5803 5804 5805 5804 5804 5804 5804 5804 5804 5804 5805 5805 5807 5807 5807 5809 5810 5810 5811 5812 5813 5813 5814 5815 5815 5815 5816 5816 5816 5816 5817 5817 5817 5818 5818 5818 5818 5819 5819 5819 5819 5820 5821
5795 5796 5796 5797 5797 5796 5796 5797 5797 5797 5798 5798 5799 5799 5801 5801 5803 5804 5804 5805 5806 5807 5808 5809 5810 5810 5811 5812 5812 5813 5813 5813 5814 5814 5814 5815 5815 5816 5816 5816 5817 5817 5818 5818
5788 5788 5789 5790 5790 5789 5789 5790 5791 5791 5791 5791 5792 5793 5794 5795 5796 5797 5798 5799 5800 5801 5802 5803 5804 5805 5806 5807 5808 5808 5809 5810 5810 5811 5811 5812 5813 5813 5814 5814 5814 5815 5815 5816
5781 5782 5782 5783 5783 5781 5782 5784 5784 5784 5784 5785 5784 5787 5787 5788 5789 5791 5792 5793 5794 5795 5797 5798 5799 5800 5801 5803 5804 5804 5805 5806 5806 5807 5808 5809 5809 5810 5811 5811 5811 5812 5812 5813
5775 5774 5774 5775 5776 5775 5779 5778 5777 5777 5777 5777 5777 5778 5779 5780 5782 5784 5785 5786 5788 5790 5790 5792 5793 5795 5796 5797 5799 5800 5801 5802 5803 5804 5804 5805 5806 5806 5807 5808 5808 5809 5809 5810
5768 5768 5768 5768 5767 5768 5771 5771 5770 5770 5771 5771 5770 5771 5772 5773 5774 5777 5778 5779 5781 5783 5784 5785 5787 5789 5791 5792 5794 5795 5796 5797 5798 5799 5800 5801 5802 5803 5804 5804 5805 5806 5806 5807
5761 5761 5762 5761 5760 5761 5764 5764 5763 5764 5764 5765 5764 5764 5765 5766 5768 5771 5772 5772 5774 5776 5778 5780 5781 5783 5785 5786 5788 5790 5791 5792 5794 5795 5796 5797 5798 5799 5800 5801 5802 5802 5803 5804
5754 5754 5754 5754 5753 5754 5757 5757 5756 5757 5759 5758 5758 5758 5759 5760 5761 5764 5764 5765 5767 5769 5772 5773 5775 5776 5778 5780 5782 5784 5786 5787 5788 5790 5791 5792 5793 5795 5796 5797 5798 5799 5800 5800
5746 5746 5746 5746 5746 5750 5750 5749 5749 5749 5750 5750 5750 5751 5752 5753 5754 5755 5757 5758 5760 5762 5764 5766 5768 5770 5771 5773 5776 5778 5780 5782 5783 5785 5786 5787 5789 5790 5791 5792 5793 5795 5796 5797
5738 5739 5738 5739 5741 5741 5740 5740 5740 5741 5741 5742 5742 5744 5745 5746 5747 5749 5750 5752 5753 5755 5757 5759 5761 5763 5764 5766 5769 5771 5773 5776 5778 5779 5781 5782 5784 5785 5786 5788 5789 5790 5791 5792
5730 5730 5730 5730 5731 5731 5732 5732 5732 5733 5733 5734 5735 5736 5737 5739 5740 5741 5742 5744 5745 5747 5749 5751 5753 5755 5757 5759 5761 5764 5766 5769 5771 5773 5775 5777 5778 5780 5781 5783 5784 5785 5786 5787
5721 5721 5721 5721 5722 5722 5723 5723 5724 5725 5725 5726 5727 5728 5730 5731 5732 5734 5735 5737 5738 5740 5742 5743 5745 5748 5750 5752 5754 5756 5759 5762 5764 5766 5768 5770 5772 5774 5776 5777 5778 5780 5781 5782
5713 5713 5712 5713 5714 5714 5715 5715 5715 5716 5717 5718 5719 5720 5721 5723 5725 5726 5727 5729 5731 5732 5734 5736 5738 5740 5743 5744 5746 5749 5751 5754 5757 5760 5762 5764 5766 5768 5770 5771 5772 5773 5775 5776